Location: Strada George Coșbuc
(47.6577°N, 23.5639°E)
Time: 07:50:13
(UTC+03:00)

ISS - Pass Details

Date: 07 September 2017
Orbit: 401 x 407 km, 51.6° (Epoch: 24 September)

Event Time Altitude Azimuth Distance (km) Brightness Sun altitude
Exits shadow 05:16:08 40° 218° (SW) 621 -3.4 -16.1°
Maximum altitude 05:17:08 65° 152° (SSE) 453 -3.7 -15.9°
Drops below altitude 10° 05:20:25 10° 69° (ENE) 1,475 0.4 -15.4°
Sets 05:22:31 0° 67° (ENE) 2,338 1.9 -15.1°
